Regional Weather Roundup
Issued by NWS

Home | Current Version | Previous Version | Graphics & Text | Print | Product List | Glossary On
Versions: 1 2 3 4 5 6 7 8 9 10 11 12 13 14 15 16 17 18 19 20 21 22 23 24 25 26 27 28 29 30 31 32 33 34 35 36 37 38 39 40 41 42 43 44 45 46 47 48 49 50
000
ASUS43 KBIS 232302
RWRND

NORTH DAKOTA REGIONAL WEATHER ROUNDUP
NATIONAL WEATHER SERVICE BISMARCK ND
600 PM CDT MON OCT 23 2017

NOTE: "FAIR" INDICATES FEW OR NO CLOUDS BELOW 12,000 FEET WITH NO
SIGNIFICANT WEATHER AND/OR OBSTRUCTIONS TO VISIBILITY.


NDZ001>003-009>011-017-240000-
NORTHWEST NORTH DAKOTA

CITY           SKY/WX    TMP DP  RH WIND       PRES   REMARKS
WILLISTON      LGT RAIN  54  27  35 NW25G36   30.30R
MINOT          CLEAR     50  31  48 NW24G35   30.18R
MINOT AFB      CLEAR     49  31  50 N24G33    30.17R
$$

NDZ018>021-031>035-040>046-240000-
SOUTHWEST NORTH DAKOTA

CITY           SKY/WX    TMP DP  RH WIND       PRES   REMARKS
BISMARCK       CLOUDY    54  29  38 NW28G39   30.17R
DICKINSON      PTCLDY    53  25  33 NW25G38   30.25R
GARRISON         N/A     50  31  48 NW35G43   30.19R
HETTINGER ARPT CLEAR     51  24  34 NW24G35   30.28R
$$

NDZ004>008-012>016-024-026-027-054-240000-
NORTHEAST NORTH DAKOTA

CITY           SKY/WX    TMP DP  RH WIND       PRES   REMARKS
GRAND FORKS    PTCLDY    46  31  55 N20G30    30.03R
GRND FRKS AFB  PTCLDY    45  30  55 N18       30.03R
DEVILS LAKE    PTCLDY    47  29  49 NW22G30   30.09R
$$

NDZ022-023-025-028>030-036>039-047>053-240000-
SOUTHEAST NORTH DAKOTA

CITY           SKY/WX    TMP DP  RH WIND       PRES   REMARKS
FARGO          CLOUDY    52  30  43 NW17      29.98R
JAMESTOWN      CLOUDY    48  35  60 NW26G37   30.07R
$$




USA.gov is the U.S. government's official web portal to all federal, state and local government web resources and services.